KFWA

Fort Wayne International Airport

Airport
ICAO code
KFWA
IATA Code
FWA
Summary
ICAO Region
NAM
ICAO Territory
Location

Waynedale, Indiana

Serving
Fort Wayne
Elevation
814 ft
Coordinates
40° 58' 42" N , 85° 11' 42" W
KCC
Airport WX
Cumulonimbus
Metar
KFWA 221754Z 24015G20KT 10SM FEW055 SCT150 BKN250 32/18 A2998 RMK AO2 SLP144 T03220183 10333 20250 58020

International Airport located 8 nm southwest of the central business district of Fort Wayne, in Allen County, Indiana, USA.

Airport map

Aerial View

SKYbrary Partners:

Safety knowledge contributed by: